sat.trackr.live / text

‹ back to catalog

STARLINK-11097 [DTC]

NORAD 59759 · 2024-091G

PAYLOAD ACTIVE UNKNOWN

§ Identity

Operator
Country
US
Launch date
2024-05-14
Launch site
AFWTR
Launch vehicle
Mass (kg)
RCS (m²)

Purposes: comms

External: N2YO · Heavens-Above · Gunter

§ Orbital elements

Epoch: 2026-09-21T09:50:57.562944Z

Period
91.74 min
Inclination
53.1590°
Eccentricity
0.0000908
Mean motion
15.69703178 rev/d
Perigee alt
359.1 km
Apogee alt
360.4 km
Semi-major
6,737.9 km
B*
-2.4390e-6
RAAN
321.4139°
Arg perigee
115.7652°
Mean anomaly
244.3460°
Rev number
13,625

§ Raw data

STARLINK-11097 [DTC]1 59759U 24091G   26264.41038846 -.00000884  00000+0 -24390-5 0  99992 59759  53.1590 321.4139 0000908 115.7652 244.3460 15.69703178136254

JSON: /api/v1/satellites/59759 · /tle

For live sub-satellite position, see the globe view (requires WebGL).

§ Visibility from observer

Set your observer location to see the next 7 days of passes ≥ 10°. The values pass through the URL so the page stays shareable.

No JS? Fill the form by hand. The geolocation button needs JavaScript.